THOR AGENA D R/B, 1245

Orbit data source: Space-Track

THOR AGENA D R/B, 1245 is space debris in LEO originally from a launch on Tue, 09 Mar 1965 UTC launched from the Air Force Western Test Range (AFWTR). Debris objects in space refer to the collection of defunct objects orbiting the Earth. Examples of debris include non-operational satellites, rocket bodies, and fragments generated from explosions, collisions, or faulty payload assembly.

Loading next visibility...
Identifier
1245, 1965-016J
Orbit
LEO
Country
Flag of USUS
Related business
Manufacturer
LMSC
Mission
Spacecraft
Bus & Motor
AGENA D, Unknown motor
Mass
600 kg wet, 600 kg dry
Launch date (UTC)
1965-03-09 (60 years ago)
Launch vehicle
Unknown
Launch site
Air Force Western Test Range (AFWTR)
Object type
Payload
Rocket body
Debris
Shape & HBR
Cyl + 1 Nozzle, 3.1 m
Radar Cross Section
8.306 m², Large (>1 m²)

Expand to show TLE details & history
Last TLE update: 8 hours ago

TLE from 8 hours ago
0 THOR AGENA D R/B
1 01245U 65016J   25242.86972644  .00000089  00000-0  10011-3 0  9994
2 01245  70.0807   5.0139 0018859  68.3880 291.9234 13.97586900 79732
Epoch: 2025-08-30T20:52Z
TLE epoch observation values (Epoch: 2025-08-30T20:52:24.364Z)
Latitude
-0.00001°
Longitude
72.61455°
Altitude
899.378 km
Speed
7.405 km/s
True Right ascension
00h 20m 03s
True Declination
0° 00' 00"
Sunlit
Object was in full shadow at epoch
Visualization orbit readout
Latitude
Unknown
Longitude
Unknown
Altitude
Unknown
Speed
Unknown
Apparent Right ascension
Unknown
Apparent Declination
Unknown
Sunlit
N/A
Visualization observer readout
Local Sidereal Time
20:18:56
Azimuth
Unknown
Elevation
Unknown
Doppler factor
Unknown
Orbital elements
Apogee altitude
913.923 km
Perigee altitude
886.471 km
Semi-major axis
7,278.334 km
Eccentricity
0.00189
Inclination
70.0807°
RAAN
5.0139°
Arg. of periapsis
68.388°
True anomaly
291.72274°
Mean anomaly
291.9234°
Eccentric anomaly
291.82309°
Mean motion
3.49539 °/min
Orbital period
102.99 mins
BSTAR
0.00010011
Loading maneuver chart data...
Computing Atmospheric mass density...
Loading historical data...
Loading historical data...
Loading historical data...
Loading historical data...
Loading historical data...
Loading historical data...
Loading historical data...

Documentation

Showing up to 5 results
|